CW9676 Weather Reports


time (UTC)temp
C
wind
direction
speed
KPH
gust
KPH
rain 1hr
cm
rain 24hr
cm
rain mn
cm
humidity
%
barometer
mb
20260902025728 23 195 3.2 9.7 0.00 0.00 0.00 43 1007.5
20260902024737 23 210 4.8 8.0 0.00 0.00 0.00 43 1007.3
20260902023734 23 190 4.8 14.5 0.00 0.00 0.00 42 1007.0
20260902022753 23 4 6.4 14.5 0.00 0.00 0.00 42 1006.9
20260902021815 23 200 6.4 14.5 0.00 0.00 0.00 41 1006.8
20260902020747 24 203 6.4 14.5 0.00 0.00 0.00 41 1006.7
20260902015722 25 191 6.4 17.7 0.00 0.00 0.00 40 1006.6
20260902014733 25 161 6.4 17.7 0.00 0.00 0.00 39 1006.4
20260902013735 25 213 4.8 9.7 0.00 0.00 0.00 37 1006.3
20260902012743 26 179 4.8 9.7 0.00 0.00 0.00 35 1006.2
20260902011717 26 196 3.2 12.9 0.00 0.00 0.00 34 1006.3
20260902010740 27 189 6.4 12.9 0.00 0.00 0.00 34 1006.3
20260902005717 26 160 4.8 17.7 0.00 0.00 0.00 35 1006.3
20260902004647 26 200 8.0 17.7 0.00 0.00 0.00 36 1006.3
20260902003632 27 169 8.0 14.5 0.00 0.00 0.00 34 1006.3
20260902001438 27 146 9.7 20.9 0.00 0.00 0.00 33 1006.4
20260902000455 27 149 9.7 20.9 0.00 0.00 0.00 34 1006.6
20260901235422 27 159 9.7 20.9 0.00 0.00 0.00 35 1006.6
20260901234419 28 4 8.0 22.5 0.00 0.00 0.00 33 1006.6
20260901233354 28 146 12.9 22.5 0.00 0.00 0.00 32 1006.6
20260901232322 29 127 8.0 24.1 0.00 0.00 0.00 32 1006.5
20260901231341 28 143 12.9 24.1 0.00 0.00 0.00 30 1006.6
20260901230338 28 148 9.7 22.5 0.00 0.00 0.00 32 1006.6
20260901225324 28 177 11.3 24.1 0.00 0.00 0.00 31 1006.7
20260901224256 28 96 11.3 24.1 0.00 0.00 0.00 31 1006.8
20260901223245 28 156 9.7 20.9 0.00 0.00 0.00 31 1006.7
20260901222251 28 154 9.7 24.1 0.00 0.00 0.00 32 1006.9
20260901220152 28 180 4.8 29.0 0.00 0.00 0.00 33 1006.9
20260901214030 28 156 11.3 20.9 0.00 0.00 0.00 33 1007.1
20260901213030 28 163 11.3 19.3 0.00 0.00 0.00 33 1007.2
20260901210833 29 163 8.0 20.9 0.00 0.00 0.00 34 1007.5
20260901205802 28 155 4.8 22.5 0.00 0.00 0.00 34 1007.7
20260901204804 28 137 9.7 22.5 0.00 0.00 0.00 35 1007.9
20260901203743 28 131 6.4 20.9 0.00 0.00 0.00 36 1008.0
20260901202756 27 238 8.0 20.9 0.00 0.00 0.00 37 1008.1
20260901200709 27 138 4.8 16.1 0.00 0.00 0.00 38 1008.4
20260901195721 27 107 4.8 16.1 0.00 0.00 0.00 39 1008.4
20260901194711 26 137 6.4 16.1 0.00 0.00 0.00 41 1008.6
20260901193638 26 217 3.2 20.9 0.00 0.00 0.00 42 1008.7
20260901192604 25 162 11.3 20.9 0.00 0.00 0.00 43 1008.8
20260901191537 25 140 9.7 19.3 0.00 0.00 0.00 43 1008.8
20260901190538 26 184 6.4 16.1 0.00 0.00 0.00 42 1008.8
20260901185538 25 134 8.0 19.3 0.00 0.00 0.00 44 1008.9
20260901184601 25 151 8.0 19.3 0.00 0.00 0.00 44 1009.0
20260901183543 25 184 6.4 17.7 0.00 0.00 0.00 44 1009.0
20260901182550 25 50 6.4 16.1 0.00 0.00 0.00 45 1009.2
20260901181610 25 153 8.0 16.1 0.00 0.00 0.00 45 1009.2
20260901175522 26 122 6.4 14.5 0.00 0.00 0.00 42 1009.4
20260901173316 25 138 8.0 20.9 0.00 0.00 0.00 44 1009.4
20260901172248 25 197 9.7 20.9 0.00 0.00 0.00 45 1009.5
20260901171226 25 131 8.0 16.1 0.00 0.00 0.00 46 1009.6
20260901170230 24 4 9.7 17.7 0.00 0.00 0.00 49 1009.5
20260901165234 23 155 8.0 17.7 0.00 0.00 0.00 52 1009.5
20260901163120 22 149 6.4 14.5 0.00 0.00 0.00 51 1009.1
20260901162136 23 226 4.8 14.5 0.00 0.00 0.00 50 1009.0
20260901161152 23 148 6.4 16.1 0.00 0.00 0.00 52 1009.1
20260901160203 23 127 6.4 16.1 0.00 0.00 0.00 53 1009.1
20260901155154 22 164 6.4 12.9 0.00 0.00 0.00 56 1009.0
20260901154145 21 154 4.8 12.9 0.00 0.00 0.00 60 1008.9
20260901152039 20 219 6.4 12.9 0.00 0.00 0.00 62 1008.6
20260901151044 20 4 6.4 12.9 0.00 0.00 0.00 63 1008.5
20260901150038 20 215 4.8 12.9 0.00 0.00 0.00 64 1008.5
20260901141637 19 213 6.4 14.5 0.00 0.00 0.00 65 1008.4
20260901140629 19 177 4.8 9.7 0.00 0.00 0.00 65 1008.3
20260901135627 18 211 4.8 9.7 0.00 0.00 0.00 66 1008.3
20260901131152 17 213 6.4 16.1 0.00 0.00 0.00 68 1008.1
20260901130128 17 210 6.4 16.1 0.00 0.00 0.00 68 1007.9
20260901125100 17 224 4.8 8.0 0.00 0.00 0.00 68 1007.8
20260901124055 17 217 6.4 11.3 0.00 0.00 0.00 68 1007.8
20260901123059 17 238 6.4 11.3 0.00 0.00 0.00 70 1007.6
20260901122110 17 243 6.4 9.7 0.00 0.00 0.00 70 1007.6
20260901121126 17 231 4.8 9.7 0.00 0.00 0.00 70 1007.6
20260901120054 17 230 4.8 9.7 0.00 0.00 0.00 70 1007.6
20260901115112 17 211 6.4 9.7 0.00 0.00 0.00 70 1007.6
20260901114056 17 227 4.8 8.0 0.00 0.00 0.00 69 1007.5
20260901113036 17 196 3.2 8.0 0.00 0.00 0.00 68 1007.7
20260901110858 18 179 3.2 4.8 0.00 0.00 0.00 61 1007.5
20260901105842 18 248 1.6 3.2 0.00 0.00 0.00 61 1007.4
20260901104823 17 248 0.0 3.2 0.00 0.00 0.00 64 1007.3
20260901103750 17 248 1.6 3.2 0.00 0.00 0.00 65 1007.3
20260901102750 18 248 1.6 3.2 0.00 0.00 0.00 66 1007.4
20260901101733 18 214 1.6 3.2 0.00 0.00 0.00 66 1007.5
20260901100736 18 206 0.0 3.2 0.00 0.00 0.00 65 1007.5
20260901095757 18 175 1.6 3.2 0.00 0.00 0.00 65 1007.4
20260901094733 18 177 1.6 4.8 0.00 0.00 0.00 63 1007.6
20260901093704 18 215 1.6 4.8 0.00 0.00 0.00 61 1007.6
20260901092653 19 223 1.6 3.2 0.00 0.00 0.00 59 1007.6
20260901085416 19 240 6.4 11.3 0.00 0.00 0.00 60 1007.6
20260901084410 19 231 6.4 9.7 0.00 0.00 0.00 61 1007.5
20260901083342 19 219 4.8 8.0 0.00 0.00 0.00 62 1007.9
20260901082348 19 203 3.2 6.4 0.00 0.00 0.00 62 1008.1
20260901081339 19 211 3.2 8.0 0.00 0.00 0.00 62 1008.2
20260901075153 19 225 3.2 9.7 0.00 0.00 0.00 63 1008.2
20260901074134 19 237 4.8 9.7 0.00 0.00 0.00 63 1008.2
20260901073100 19 244 6.4 9.7 0.00 0.00 0.00 63 1008.2
20260901070959 18 234 4.8 9.7 0.00 0.00 0.00 64 1008.2
20260901065924 19 233 3.2 8.0 0.00 0.00 0.00 63 1008.3
20260901063819 19 130 0.0 4.8 0.00 0.00 0.00 63 1008.6
20260901062755 19 143 0.0 0.0 0.00 0.00 0.00 63 1008.7
20260901061725 19 165 4.8 9.7 0.00 0.00 0.00 62 1008.5
20260901060714 19 200 4.8 9.7 0.00 0.00 0.00 63 1008.2
20260901055735 19 202 3.2 11.3 0.00 0.00 0.00 63 1008.0
20260901054723 19 199 3.2 11.3 0.00 0.00 0.00 63 1008.3
20260901053653 19 180 3.2 8.0 0.00 0.00 0.00 63 1008.3
20260901051526 19 230 4.8 12.9 0.00 0.00 0.00 63 1008.5
20260901050551 19 151 6.4 16.1 0.00 0.00 0.00 62 1008.6
20260901045538 19 184 8.0 22.5 0.00 0.00 0.00 61 1008.8
20260901044556 19 165 12.9 22.5 0.00 0.00 0.00 61 1008.7
20260901042409 20 133 9.7 17.7 0.00 0.00 0.00 60 1008.6
20260901041427 20 140 3.2 6.4 0.00 0.00 0.00 60 1008.9
20260901040424 20 113 3.2 14.5 0.00 0.00 0.00 60 1008.6
20260901033222 21 186 8.0 17.7 0.00 0.00 0.00 50 1006.9
20260901032207 22 168 6.4 17.7 0.00 0.00 0.00 49 1006.9
20260901031215 22 186 4.8 14.5 0.00 0.00 0.00 48 1006.7